User: anonymous   Login
Location: Unspecified
(0.0000°N, 0.0000°E)
Time: 11:53:43
(UTC+01:00)
Language:

YAOGAN 1 - Orbit

View from above orbital plane
View from above orbital plane
View from above satellite
View from above satellite

Ground track
Ground track

The orbit data is extracted from the following two-line orbital elements,

1 29092U 06015A   16043.53520226  .00000488  00000-0  67309-4 0  9992
2 29092  98.0040  48.3762 0001378  88.7107  22.7867 14.82593337529660
Epoch (UTC): 12 February 2016 12:50:41
Eccentricity: 0.0001378
inclination: 98.0040°
perigee height: 620 km
apogee height: 622 km
right ascension of ascending node: 48.3762°
argument of perigee: 88.7107°
revolutions per day: 14.82593337
mean anomaly at epoch: 22.7867°
orbit number at epoch: 52966

The dashed part of the orbit path shows where the satellite is in the earth's shadow,  

DLR